[[{"header":{"parameterUnit":"m.s-1","parameterCategory":1,"la1":30.2991,"la2":30.254,"lo1":-89.0895,"lo2":-89.0444,"dy":0.0017,"dx":0.0017,"nx":28,"ny":28,"refTime":"2024-02-11T03:00:00:Z","depth":0,"parameterNumber":2,"parameterNumberName":"U-component_of_WINDS"},"data":[0,0,0,0,0,0,0,0,0,0,0,0,0,0,0,0,0,0,0,0,0,0,0,0,0,0,0,0,0,0,0,0,0,0,0,0,0,0,0,0,0,0,0,0,0,0,0,0,0,0,0,0,0,0,0,0,0,0,-2.3406,-2.3407,0,-2.356,-2.3561,-2.3563,-2.3606,-2.3605,-2.3605,-2.3604,-2.3763,-2.3768,-2.3773,0,0,0,0,0,0,0,0,0,0,0,0,0,-2.3151,-2.3155,-2.3405,-2.3407,-2.3409,-2.3559,-2.3561,-2.3564,-2.3606,-2.3605,-2.3604,-2.3603,-2.3762,-2.3768,-2.3774,0,0,0,0,0,0,0,0,0,0,0,0,0,-2.3279,-2.3157,-2.3405,-2.3449,-2.3454,-2.3559,-2.3562,-2.3564,-2.3607,-2.3605,-2.3604,-2.3603,-2.376,-2.3767,-2.3775,-2.3848,0,0,-2.3798,-2.3801,0,0,0,0,0,0,0,0,-2.3271,-2.3288,-2.344,-2.3446,-2.3452,-2.3562,-2.353,-2.3659,-2.3607,-2.3549,-2.3604,-2.3602,-2.3698,-2.371,-2.3742,-2.3855,-2.3862,-2.3798,-2.3803,-2.3806,-2.3808,0,0,0,0,0,0,0,-2.3262,-2.3282,-2.3466,-2.3442,-2.345,-2.3461,-2.3478,-2.3555,-2.3629,-2.3554,-2.3557,-2.3575,-2.3701,-2.3735,-2.3746,-2.3864,-2.3798,-2.3805,-2.381,-2.3813,-2.4045,-2.4047,0,0,0,0,0,0,-2.3246,-2.3274,-2.3462,-2.3471,-2.3357,-2.3467,-2.3486,-2.3528,-2.3628,-2.3642,-2.3576,-2.3576,-2.3722,-2.3737,-2.3752,-2.3843,-2.3806,-2.3813,-2.3818,-2.4044,-2.4046,-2.4047,0,0,0,0,0,0,-2.324,-2.3262,-2.3455,-2.3374,-2.3399,-2.3473,-2.352,-2.3532,-2.3566,-2.3645,-2.3658,-2.3597,-2.3722,-2.3741,-2.3823,-2.385,-2.3817,-2.3824,-2.4042,-2.4044,-2.4047,-2.4027,0,0,0,0,0,0,-2.3233,-2.326,-2.3288,-2.3374,-2.3403,-2.3523,-2.3522,-2.3536,-2.3579,-2.3581,-2.3668,-2.3681,-2.3722,-2.3812,-2.3831,-2.3859,-2.383,-2.404,-2.4043,-2.4046,-2.4026,-2.4028,-2.4031,0,0,0,0,0,-2.3223,-2.3276,-2.3289,-2.3311,-2.3439,-2.3525,-2.3542,-2.3587,-2.3581,-2.361,-2.366,-2.3678,-2.3844,-2.382,-2.3842,-2.3873,-2.4038,-2.4042,-2.4046,-2.4024,-2.4028,-2.4031,0,0,0,0,0,0,-2.3192,-2.3288,-2.3303,-2.3385,-2.3446,-2.3532,-2.3569,-2.359,-2.3654,-2.3654,-2.3709,-2.3728,-2.3806,-2.3848,-2.382,-2.3949,-2.3942,-2.395,-2.3918,-2.3922,-2.3925,-2.3912,-2.3836,0,0,0,0,0,-2.3194,-2.3254,-2.3336,-2.3401,-2.3431,-2.3495,-2.3534,-2.3564,-2.363,-2.3656,-2.3712,-2.3776,-2.3843,-2.3885,-2.3951,-2.4033,-2.4052,-2.4065,-2.4068,-2.407,-2.4075,-2.4122,-2.4128,-2.4059,-2.4059,-2.4059,0,0,-2.32,-2.326,-2.3295,-2.3396,-2.3447,-2.3509,-2.3516,-2.3581,-2.3628,-2.3666,-2.3746,-2.379,-2.3865,-2.3947,-2.3987,-2.3985,-2.4099,-2.4074,-2.4075,-2.408,-2.4126,-2.4133,-2.4138,-2.4062,-2.4061,-2.4061,0,0,-2.3241,-2.3294,-2.3353,-2.3404,-2.348,-2.3523,-2.3537,-2.362,-2.365,-2.3732,-2.3762,-2.3819,-2.3932,-2.3984,-2.4025,-2.4088,-2.4107,-2.4109,-2.4122,-2.4166,-2.4171,-2.4176,-2.4198,-2.4205,-2.4115,-2.4115,-2.4115,0,-2.3239,-2.3332,-2.3381,-2.3444,-2.3488,-2.3526,-2.3586,-2.3634,-2.3728,-2.3758,-2.3755,-2.3898,-2.3951,-2.4046,-2.4061,-2.4094,-2.4112,-2.4098,-2.4167,-2.4172,-2.4178,-2.4199,-2.4207,-2.4114,-2.4114,-2.4114,-2.4114,0,-2.3325,-2.339,-2.3429,-2.3518,-2.3566,-2.3628,-2.3687,-2.3731,-2.3757,-2.38,-2.3883,-2.3949,-2.4028,-2.4053,-2.408,-2.4152,-2.4149,-2.4156,-2.4149,-2.4183,-2.4203,-2.4212,-2.4113,-2.4114,-2.4114,-2.4114,0,0,-2.3349,-2.3465,-2.3478,-2.3519,-2.3607,-2.3659,-2.3723,-2.38,-2.3836,-2.3901,-2.3956,-2.4052,-2.4059,-2.4106,-2.4139,-2.4179,-2.4223,-2.4181,-2.4184,-2.4185,-2.4306,-2.4298,-2.4307,-2.4237,-2.4239,-2.424,-2.4299,0,-2.34,-2.3514,-2.3561,-2.3654,-2.3714,-2.3752,-2.3808,-2.3868,-2.3911,-2.3969,-2.4017,-2.4083,-2.4088,-2.4117,-2.4157,-2.4209,-2.4248,-2.4206,-2.4289,-2.4291,-2.4266,-2.4318,-2.431,-2.4362,-2.4307,-2.4309,-2.431,0,-2.3475,-2.3539,-2.3638,-2.3719,-2.3746,-2.3795,-2.387,-2.3925,-2.3995,-2.4023,-2.4076,-2.4108,-2.4177,-2.4168,-2.4264,-2.4235,-2.4272,-2.4303,-2.4306,-2.4314,-2.4301,-2.4325,-2.438,-2.4387,-2.4323,-2.4322,-2.4321,0,-2.348,-2.3592,-2.3665,-2.37,-2.3796,-2.383,-2.3872,-2.3941,-2.3984,-2.405,-2.4079,-2.4153,-2.4193,-2.4249,-2.43,-2.4289,-2.4392,-2.4387,-2.4417,-2.4415,-2.4435,-2.4433,-2.4494,-2.4462,-2.4462,-2.4462,-2.4462,0,-2.3531,-2.359,-2.3669,-2.3714,-2.3781,-2.3835,-2.39,-2.3945,-2.4006,-2.4061,-2.4099,-2.415,-2.4215,-2.4275,-2.4315,-2.4389,-2.4407,-2.4432,-2.4441,-2.4427,-2.4424,-2.4451,-2.4448,-2.4464,-2.4463,-2.4463,-2.4463,0,-2.3548,-2.3603,-2.3685,-2.377,-2.3793,-2.3839,-2.3912,-2.3958,-2.4003,-2.4072,-2.4091,-2.4162,-2.4234,-2.4291,-2.4386,-2.4413,-2.449,-2.4502,-2.4465,-2.447,-2.4497,-2.4493,-2.4576,-2.459,-2.455,-2.455,-2.455,0,-2.3576,-2.3621,-2.3711,-2.375,-2.3792,-2.3855,-2.3899,-2.3955,-2.4,-2.4084,-2.4119,-2.4194,-2.4256,-2.437,-2.443,-2.4503,-2.4516,-2.454,-2.4527,-2.4511,-2.4515,-2.451,-2.4515,-2.4541,-2.4541,-2.4541,-2.4541,0,-2.3619,-2.3644,-2.3706,-2.3779,-2.383,-2.389,-2.3951,-2.3981,-2.4048,-2.4097,-2.417,-2.4219,-2.4315,-2.4389,-2.4468,-2.4513,-2.4538,-2.4546,-2.4556,-2.4541,-2.4517,-2.4529,-2.4468,-2.4543,-2.4543,-2.4543,-2.4542,-2.4542,-2.3641,-2.3684,-2.3753,-2.3822,-2.3873,-2.3929,-2.3976,-2.4027,-2.4089,-2.4171,-2.4201,-2.4276,-2.4347,-2.4455,-2.4501,-2.4561,-2.4563,-2.4578,-2.4582,-2.4585,-2.4582,-2.4509,-2.4576,-2.4576,-2.4576,-2.4576,-2.4576,0,-2.3686,-2.3732,-2.3795,-2.3878,-2.3932,-2.3952,-2.402,-2.4064,-2.413,-2.4193,-2.4253,-2.4339,-2.4411,-2.4477,-2.4552,-2.4588,-2.4602,-2.4606,-2.4603,-2.4613,-2.4577,-2.456,-2.4594,-2.4594,-2.4594,-2.4594,-2.4594,-2.4594,-2.3715,-2.3787,-2.3821,-2.392,-2.3967,-2.404,-2.4078,-2.413,-2.418,-2.4273,-2.4333,-2.4376,-2.4441,-2.4521,-2.4588,-2.4606,-2.4632,-2.4632,-2.4653,-2.4618,-2.4615,-2.4613,-2.4597,-2.4638,-2.4638,-2.4684,-2.4684,-2.4684]},{"header":{"parameterUnit":"m.s-1","parameterCategory":1,"la1":30.2991,"la2":30.254,"lo1":-89.0895,"lo2":-89.0444,"dy":0.0017,"dx":0.0017,"nx":28,"ny":28,"refTime":"2024-02-11T03:00:00:Z","depth":0,"parameterNumber":3,"parameterNumberName":"V-component_of_WINDS"},"data":[0,0,0,0,0,0,0,0,0,0,0,0,0,0,0,0,0,0,0,0,0,0,0,0,0,0,0,0,0,0,0,0,0,0,0,0,0,0,0,0,0,0,0,0,0,0,0,0,0,0,0,0,0,0,0,0,0,0,3.1952,3.1954,0,3.2159,3.2162,3.2164,3.2228,3.2227,3.2226,3.2225,3.2438,3.2444,3.2451,0,0,0,0,0,0,0,0,0,0,0,0,0,3.1612,3.1618,3.1951,3.1954,3.1957,3.2159,3.2162,3.2164,3.2228,3.2227,3.2226,3.2224,3.2436,3.2443,3.2451,0,0,0,0,0,0,0,0,0,0,0,0,0,3.1783,3.162,3.1951,3.2013,3.202,3.2158,3.2162,3.2165,3.2228,3.2227,3.2225,3.2224,3.2433,3.2443,3.2452,3.2544,0,0,3.2483,3.2487,0,0,0,0,0,0,0,0,3.1774,3.1796,3.2001,3.2009,3.2017,3.2166,3.212,3.2292,3.2229,3.2149,3.2225,3.2223,3.2349,3.2365,3.2408,3.2554,3.2563,3.2484,3.249,3.2494,3.2497,0,0,0,0,0,0,0,3.1762,3.1787,3.2034,3.2004,3.2014,3.2031,3.2053,3.2153,3.2255,3.2156,3.2161,3.2185,3.2353,3.2398,3.2413,3.2566,3.2483,3.2492,3.2498,3.2502,3.2802,3.2804,0,0,0,0,0,0,3.1739,3.1777,3.2027,3.204,3.1889,3.2038,3.2063,3.212,3.2254,3.2273,3.2186,3.2187,3.2382,3.2401,3.2421,3.254,3.2494,3.2503,3.2509,3.28,3.2802,3.2804,0,0,0,0,0,0,3.1732,3.1761,3.2019,3.191,3.1944,3.2045,3.2108,3.2125,3.217,3.2277,3.2295,3.2213,3.2381,3.2407,3.2514,3.2548,3.2508,3.2517,3.2797,3.28,3.2803,3.2777,0,0,0,0,0,0,3.1722,3.1758,3.1793,3.191,3.195,3.2107,3.211,3.213,3.2187,3.219,3.2307,3.2325,3.2382,3.2499,3.2524,3.2561,3.2524,3.2795,3.2799,3.2802,3.2775,3.2778,3.2781,0,0,0,0,0,3.1709,3.1777,3.1794,3.1824,3.1996,3.2109,3.2132,3.2196,3.2189,3.2227,3.2295,3.2321,3.2539,3.2509,3.2538,3.2579,3.2793,3.2798,3.2802,3.2773,3.2778,3.2781,0,0,0,0,0,0,3.166,3.1793,3.1814,3.1921,3.2004,3.212,3.2168,3.2198,3.2284,3.2283,3.2359,3.2385,3.2487,3.2543,3.2507,3.2676,3.2667,3.2678,3.2636,3.2641,3.2644,3.2629,3.2533,0,0,0,0,0,3.1662,3.1743,3.1854,3.1938,3.1978,3.2066,3.2118,3.216,3.2248,3.2284,3.236,3.2445,3.2533,3.259,3.2676,3.2782,3.2811,3.2825,3.2828,3.283,3.2839,3.2903,3.2911,3.2819,3.2819,3.2819,0,0,3.1666,3.1749,3.1795,3.193,3.1999,3.2082,3.2095,3.2181,3.2244,3.2297,3.2404,3.2462,3.2562,3.267,3.2721,3.272,3.287,3.2836,3.2837,3.2845,3.2908,3.2917,3.2925,3.2822,3.2822,3.2821,0,0,3.1718,3.1787,3.1866,3.1935,3.2039,3.2097,3.2116,3.2228,3.227,3.2378,3.242,3.2496,3.2645,3.2715,3.2771,3.285,3.2879,3.2876,3.2894,3.2955,3.2962,3.2969,3.3,3.301,3.2884,3.2884,3.2884,0,3.171,3.1837,3.1903,3.1989,3.2048,3.2099,3.2181,3.2245,3.2371,3.2412,3.2408,3.2599,3.2669,3.2796,3.2815,3.2857,3.2883,3.2864,3.2955,3.2963,3.2971,3.3001,3.3013,3.2883,3.2883,3.2883,3.2883,0,3.1824,3.1911,3.1963,3.2085,3.215,3.2233,3.2313,3.2371,3.2407,3.2466,3.2577,3.2663,3.277,3.2802,3.2838,3.2935,3.2931,3.294,3.2934,3.2977,3.3008,3.302,3.2882,3.2882,3.2883,3.2883,0,0,3.1851,3.201,3.2028,3.2086,3.2205,3.2274,3.236,3.2465,3.2514,3.26,3.2675,3.2801,3.2811,3.2874,3.2919,3.2972,3.3033,3.2975,3.2979,3.2985,3.3148,3.3143,3.3155,3.3051,3.3054,3.3056,3.3141,0,3.192,3.2077,3.2139,3.2266,3.235,3.24,3.2475,3.2557,3.2614,3.2694,3.2757,3.2846,3.2851,3.289,3.2944,3.3014,3.3067,3.3008,3.3125,3.3128,3.3101,3.3171,3.3165,3.3241,3.3153,3.3155,3.3156,0,3.2022,3.211,3.2246,3.2357,3.2394,3.2461,3.2563,3.2638,3.2732,3.277,3.2841,3.2883,3.2976,3.2962,3.3093,3.3052,3.3103,3.3144,3.3149,3.3165,3.3147,3.3191,3.3267,3.3279,3.3175,3.3174,3.3172,0,3.2033,3.2184,3.2286,3.2333,3.2465,3.2511,3.2568,3.2661,3.2721,3.281,3.285,3.2948,3.3003,3.3078,3.3146,3.3129,3.3272,3.3262,3.3308,3.3307,3.3339,3.3336,3.3426,3.3366,3.3366,3.3366,3.3365,0,3.2105,3.2187,3.2293,3.2356,3.245,3.2521,3.2612,3.2673,3.2755,3.2832,3.288,3.295,3.3035,3.3116,3.317,3.3272,3.3295,3.333,3.3344,3.3328,3.3324,3.3365,3.3362,3.3369,3.3368,3.3367,3.3367,0,3.2134,3.2208,3.2323,3.2438,3.2469,3.2533,3.2633,3.2697,3.2756,3.2852,3.2879,3.2973,3.3072,3.3147,3.3274,3.331,3.342,3.3433,3.3389,3.3397,3.344,3.3436,3.3562,3.3583,3.3505,3.3505,3.3506,0,3.2176,3.2241,3.2364,3.2419,3.2476,3.2563,3.2625,3.2697,3.276,3.2873,3.2923,3.3026,3.3112,3.3268,3.3348,3.3447,3.3465,3.3502,3.348,3.3462,3.3469,3.3466,3.3474,3.3505,3.3506,3.3506,3.3507,0,3.2246,3.228,3.2367,3.2467,3.254,3.2622,3.2705,3.2747,3.2835,3.2903,3.3005,3.3072,3.3204,3.3306,3.3413,3.3472,3.3506,3.3513,3.3529,3.3515,3.3488,3.3507,3.3401,3.351,3.351,3.3509,3.3509,3.3509,3.2286,3.2347,3.2443,3.2539,3.261,3.2687,3.2753,3.2821,3.2908,3.3022,3.3059,3.3165,3.326,3.3407,3.3468,3.3553,3.3553,3.3576,3.3582,3.3588,3.3588,3.3472,3.3572,3.3572,3.3572,3.3572,3.3572,0,3.2361,3.2426,3.2513,3.2629,3.2705,3.2728,3.2822,3.2884,3.2977,3.3063,3.3147,3.3266,3.3365,3.3453,3.3557,3.3608,3.3626,3.3633,3.3632,3.3646,3.358,3.3557,3.3617,3.3617,3.3617,3.3617,3.3617,3.3617,3.2409,3.2514,3.256,3.2701,3.2766,3.2871,3.2923,3.2995,3.3064,3.3194,3.3278,3.3334,3.3421,3.3532,3.3625,3.3648,3.3686,3.369,3.3717,3.3655,3.365,3.3645,3.3624,3.3697,3.3697,3.3776,3.3777,3.3778]}]]